User: anonymous   Login
Location: Unspecified
(0.0000°N, 0.0000°E)
Time: 10:17:32
(UTC+00:00)
Language:

COSMOS 2468 - Orbit

View from above orbital plane
View from above orbital plane
View from above satellite
View from above satellite

Ground track
Ground track

The orbit data is extracted from the following two-line orbital elements,

1 37154U 10043C   15085.68850470  .00000030  00000-0  14895-3 0  9998
2 37154 082.4586 109.1960 0012538 267.9332 092.0309 12.42897424206242
Epoch (UTC): 26 March 2015 16:31:26
Eccentricity: 0.0012538
inclination: 82.4586°
perigee height: 1484 km
apogee height: 1504 km
right ascension of ascending node: 109.1960°
argument of perigee: 267.9332°
revolutions per day: 12.42897424
mean anomaly at epoch: 92.0309°
orbit number at epoch: 20624

The dashed part of the orbit path shows where the satellite is in the earth's shadow,  

DLR